| time (UTC) | temp F | wind direction | speed MPH | gust MPH | rain 1hr in | rain 24hr in | rain mn in | humidity % | barometer mb |
| 20260509103005 | 45 | 264 | 0.0 | 0.0 | 0.00 | 0.00 | 0.00 | 89 | 1100.1 |
| 20260509101506 | 44 | 264 | 0.0 | 0.0 | 0.00 | 0.00 | 0.00 | 89 | 1100.1 |
| 20260509101005 | 43 | 0 | 0.0 | 0.0 | 0.00 | 0.00 | 0.00 | 93 | 1015.1 |
| 20260509100144 | 43 | 264 | 0.0 | 0.0 | 0.00 | 0.00 | 0.00 | 88 | 1100.1 |
| 20260509100005 | 43 | 0 | 0.0 | 0.0 | 0.00 | 0.00 | 0.00 | 93 | 1015.0 |
| 20260509095006 | 43 | 0 | 0.0 | 0.0 | 0.00 | 0.00 | 0.00 | 93 | 1014.7 |
| 20260509094633 | 44 | 264 | 0.0 | 0.0 | 0.00 | 0.00 | 0.00 | 89 | 1100.1 |
| 20260509094505 | 43 | 0 | 0.0 | 0.0 | 0.00 | 0.00 | 0.00 | 93 | 1014.7 |
| 20260509093506 | 43 | 0 | 0.0 | 0.0 | 0.00 | 0.00 | 0.00 | 93 | 1014.3 |
| 20260509093005 | 42 | 0 | 0.0 | 0.0 | 0.00 | 0.00 | 0.00 | 93 | 1014.3 |
| 20260509093002 | 42 | 264 | 0.0 | 0.0 | 0.00 | 0.00 | 0.00 | 89 | 1100.1 |
| 20260509091641 | 43 | 264 | 0.0 | 0.0 | 0.00 | 0.00 | 0.00 | 89 | 1100.1 |
| 20260509090146 | 42 | 264 | 0.0 | 0.0 | 0.00 | 0.00 | 0.00 | 88 | 1100.1 |
| 20260509084635 | 41 | 264 | 0.0 | 0.0 | 0.00 | 0.00 | 0.00 | 88 | 1100.1 |
| 20260509084006 | 41 | 0 | 0.0 | 0.0 | 0.00 | 0.00 | 0.00 | 92 | 1014.3 |
| 20260509083505 | 41 | 0 | 0.0 | 0.0 | 0.00 | 0.00 | 0.00 | 92 | 1014.3 |
| 20260509083128 | 41 | 264 | 0.0 | 0.0 | 0.00 | 0.00 | 0.00 | 88 | 1100.1 |
| 20260509083005 | 41 | 0 | 0.0 | 0.0 | 0.00 | 0.00 | 0.00 | 92 | 1014.3 |
| 20260509082005 | 41 | 0 | 0.0 | 0.0 | 0.00 | 0.00 | 0.00 | 92 | 1014.3 |
| 20260509081629 | 41 | 264 | 0.0 | 0.0 | 0.00 | 0.00 | 0.00 | 88 | 1100.1 |
| 20260509081504 | 40 | 0 | 0.0 | 0.0 | 0.00 | 0.00 | 0.00 | 92 | 1014.4 |
| 20260509080504 | 40 | 0 | 0.0 | 0.0 | 0.00 | 0.00 | 0.00 | 92 | 1014.4 |
| 20260509080002 | 40 | 264 | 0.0 | 0.0 | 0.00 | 0.00 | 0.00 | 87 | 1100.1 |
| 20260509075504 | 40 | 0 | 0.0 | 0.0 | 0.00 | 0.00 | 0.00 | 92 | 1014.7 |
| 20260509075005 | 40 | 0 | 0.0 | 0.0 | 0.00 | 0.00 | 0.00 | 92 | 1014.7 |
| 20260509074637 | 41 | 264 | 0.0 | 0.0 | 0.00 | 0.00 | 0.00 | 88 | 1100.1 |
| 20260509074005 | 39 | 0 | 0.0 | 0.0 | 0.00 | 0.00 | 0.00 | 92 | 1014.6 |
| 20260509073505 | 39 | 0 | 0.0 | 0.0 | 0.00 | 0.00 | 0.00 | 92 | 1014.6 |
| 20260509073141 | 40 | 264 | 0.0 | 0.0 | 0.00 | 0.00 | 0.00 | 87 | 1100.1 |
| 20260509072005 | 39 | 0 | 0.0 | 0.0 | 0.00 | 0.00 | 0.00 | 91 | 1014.8 |
| 20260509071512 | 39 | 264 | 0.0 | 0.0 | 0.00 | 0.00 | 0.00 | 87 | 1100.1 |
| 20260509071504 | 39 | 0 | 0.0 | 0.0 | 0.00 | 0.00 | 0.00 | 91 | 1014.8 |
| 20260509070505 | 39 | 0 | 0.0 | 0.0 | 0.00 | 0.00 | 0.00 | 91 | 1014.7 |
| 20260509070136 | 39 | 264 | 0.0 | 0.0 | 0.00 | 0.00 | 0.00 | 87 | 1100.1 |
| 20260509070005 | 38 | 0 | 0.0 | 0.0 | 0.00 | 0.00 | 0.00 | 91 | 1014.7 |
| 20260509064633 | 39 | 264 | 0.0 | 0.0 | 0.00 | 0.00 | 0.00 | 87 | 1100.1 |
| 20260509064504 | 38 | 0 | 0.0 | 0.0 | 0.00 | 0.00 | 0.00 | 91 | 1014.6 |
| 20260509063505 | 38 | 0 | 0.0 | 0.0 | 0.00 | 0.00 | 0.00 | 90 | 1014.5 |
| 20260509063014 | 39 | 264 | 0.0 | 0.0 | 0.00 | 0.00 | 0.00 | 87 | 1100.1 |
| 20260509061614 | 38 | 264 | 0.0 | 0.0 | 0.00 | 0.00 | 0.00 | 86 | 1100.1 |
| 20260509061505 | 39 | 0 | 0.0 | 0.0 | 0.00 | 0.00 | 0.00 | 90 | 1014.5 |
| 20260509060029 | 39 | 264 | 0.0 | 0.0 | 0.00 | 0.00 | 0.00 | 86 | 1100.1 |
| 20260509055505 | 39 | 0 | 0.0 | 0.0 | 0.00 | 0.00 | 0.00 | 89 | 1014.3 |
| 20260509055005 | 39 | 0 | 0.0 | 0.0 | 0.00 | 0.00 | 0.00 | 89 | 1014.3 |
| 20260509054512 | 39 | 264 | 0.0 | 0.0 | 0.00 | 0.00 | 0.00 | 86 | 1100.1 |
| 20260509054504 | 39 | 0 | 0.0 | 0.0 | 0.00 | 0.00 | 0.00 | 89 | 1014.3 |
| 20260509054005 | 39 | 0 | 0.0 | 0.0 | 0.00 | 0.00 | 0.00 | 89 | 1014.3 |
| 20260509053504 | 40 | 0 | 0.0 | 0.0 | 0.00 | 0.00 | 0.00 | 89 | 1014.3 |
| 20260509053105 | 39 | 264 | 0.0 | 0.0 | 0.00 | 0.00 | 0.00 | 86 | 1100.1 |
| 20260509051510 | 39 | 264 | 0.0 | 0.0 | 0.00 | 0.00 | 0.00 | 86 | 1100.1 |
| 20260509051005 | 40 | 0 | 0.0 | 0.0 | 0.00 | 0.00 | 0.00 | 89 | 1014.2 |
| 20260509050504 | 41 | 0 | 0.0 | 0.0 | 0.00 | 0.00 | 0.00 | 89 | 1014.3 |
| 20260509050123 | 39 | 264 | 0.0 | 0.0 | 0.00 | 0.00 | 0.00 | 85 | 1100.1 |
| 20260509050005 | 41 | 0 | 0.0 | 0.0 | 0.00 | 0.00 | 0.00 | 90 | 1014.4 |
| 20260509045505 | 41 | 0 | 0.0 | 0.0 | 0.00 | 0.00 | 0.00 | 89 | 1014.2 |
| 20260509044623 | 40 | 264 | 0.0 | 0.0 | 0.00 | 0.00 | 0.00 | 85 | 1100.1 |
| 20260509044505 | 41 | 0 | 0.0 | 0.0 | 0.00 | 0.00 | 0.00 | 89 | 1014.2 |
| 20260509044005 | 41 | 0 | 0.0 | 0.0 | 0.00 | 0.00 | 0.00 | 89 | 1014.2 |
| 20260509043504 | 41 | 0 | 0.0 | 0.0 | 0.00 | 0.00 | 0.00 | 89 | 1014.2 |
| 20260509043006 | 41 | 0 | 0.0 | 0.0 | 0.00 | 0.00 | 0.00 | 89 | 1014.3 |
| 20260509041507 | 41 | 264 | 0.0 | 0.0 | 0.00 | 0.00 | 0.01 | 84 | 1100.1 |
| 20260509041005 | 41 | 0 | 0.0 | 0.0 | 0.00 | 0.00 | 0.00 | 89 | 1013.9 |
| 20260509040505 | 42 | 0 | 0.0 | 0.0 | 0.00 | 0.00 | 0.00 | 89 | 1014.0 |
| 20260509040023 | 41 | 264 | 0.0 | 0.0 | 0.00 | 0.00 | 0.01 | 84 | 1100.1 |
| 20260509034604 | 41 | 264 | 0.0 | 0.0 | 0.00 | 0.00 | 0.01 | 83 | 1100.1 |
| 20260509034505 | 43 | 0 | 0.0 | 0.0 | 0.00 | 0.00 | 0.00 | 89 | 1013.8 |
| 20260509033108 | 42 | 264 | 0.0 | 0.0 | 0.00 | 0.00 | 0.01 | 83 | 1100.1 |
| 20260509032005 | 43 | 0 | 0.0 | 0.0 | 0.00 | 0.00 | 0.00 | 88 | 1013.9 |
| 20260509031513 | 43 | 264 | 0.0 | 0.0 | 0.00 | 0.00 | 0.01 | 83 | 1100.1 |
| 20260509031505 | 44 | 0 | 0.0 | 0.0 | 0.00 | 0.00 | 0.00 | 87 | 1013.8 |
| 20260509030141 | 43 | 264 | 0.0 | 0.0 | 0.00 | 0.00 | 0.01 | 83 | 1100.1 |
| 20260509025505 | 44 | 0 | 0.0 | 0.0 | 0.00 | 0.00 | 0.00 | 87 | 1013.6 |
| 20260509025005 | 45 | 0 | 0.0 | 0.0 | 0.00 | 0.00 | 0.00 | 86 | 1013.5 |
| 20260509024516 | 44 | 264 | 0.0 | 0.0 | 0.00 | 0.00 | 0.01 | 83 | 1100.1 |
| 20260509024504 | 45 | 0 | 0.0 | 0.0 | 0.00 | 0.00 | 0.00 | 86 | 1013.5 |
| 20260509023138 | 44 | 264 | 0.0 | 0.0 | 0.00 | 0.00 | 0.01 | 82 | 1100.1 |
| 20260509022006 | 46 | 0 | 0.0 | 0.0 | 0.00 | 0.00 | 0.00 | 85 | 1013.3 |
| 20260509021642 | 45 | 264 | 0.0 | 0.0 | 0.00 | 0.00 | 0.01 | 81 | 1100.1 |
| 20260509020504 | 46 | 0 | 0.0 | 0.0 | 0.00 | 0.00 | 0.00 | 83 | 1013.2 |
| 20260509020131 | 45 | 264 | 0.0 | 0.0 | 0.00 | 0.00 | 0.01 | 80 | 1100.1 |
| 20260509020005 | 46 | 0 | 0.0 | 0.0 | 0.00 | 0.00 | 0.00 | 83 | 1013.2 |
| 20260509015505 | 46 | 0 | 0.0 | 0.0 | 0.00 | 0.00 | 0.00 | 82 | 1013.1 |
| 20260509015005 | 47 | 0 | 0.0 | 0.0 | 0.00 | 0.00 | 0.00 | 81 | 1013.0 |
| 20260509014508 | 46 | 264 | 0.0 | 0.0 | 0.00 | 0.00 | 0.01 | 78 | 1100.1 |
| 20260509013505 | 47 | 0 | 0.0 | 0.0 | 0.00 | 0.00 | 0.00 | 80 | 1012.9 |
| 20260509013006 | 48 | 0 | 0.0 | 0.0 | 0.00 | 0.00 | 0.00 | 78 | 1012.7 |
| 20260509013004 | 47 | 264 | 0.0 | 0.0 | 0.00 | 0.00 | 0.01 | 75 | 1100.1 |
| 20260509011506 | 47 | 264 | 0.0 | 0.0 | 0.00 | 0.00 | 0.01 | 72 | 1100.1 |
| 20260509010108 | 48 | 264 | 0.0 | 0.0 | 0.00 | 0.00 | 0.01 | 69 | 1100.1 |
| 20260509005504 | 48 | 0 | 0.0 | 0.0 | 0.00 | 0.00 | 0.00 | 70 | 1012.1 |
| 20260509005006 | 49 | 0 | 0.0 | 0.0 | 0.00 | 0.00 | 0.00 | 68 | 1011.9 |
| 20260509004642 | 48 | 264 | 0.0 | 0.0 | 0.00 | 0.00 | 0.01 | 65 | 1100.1 |
| 20260509004005 | 50 | 0 | 0.0 | 0.0 | 0.00 | 0.00 | 0.00 | 66 | 1011.8 |
| 20260509003504 | 50 | 0 | 0.0 | 0.0 | 0.00 | 0.00 | 0.00 | 64 | 1011.6 |
| 20260509003123 | 50 | 264 | 0.0 | 0.0 | 0.00 | 0.00 | 0.01 | 61 | 1100.1 |
| 20260509003005 | 50 | 0 | 0.0 | 0.0 | 0.00 | 0.00 | 0.00 | 62 | 1011.4 |
| 20260509002505 | 51 | 0 | 0.0 | 0.0 | 0.00 | 0.00 | 0.00 | 61 | 1011.3 |
| 20260509002006 | 51 | 0 | 0.0 | 0.0 | 0.00 | 0.00 | 0.00 | 60 | 1011.2 |
| 20260509001613 | 51 | 264 | 1.0 | 0.0 | 0.00 | 0.00 | 0.01 | 59 | 1100.1 |
| 20260509001005 | 52 | 0 | 0.0 | 0.0 | 0.00 | 0.00 | 0.00 | 56 | 1011.0 |
| 20260509000505 | 53 | 0 | 0.0 | 0.0 | 0.00 | 0.00 | 0.00 | 56 | 1010.9 |
| 20260509000119 | 53 | 264 | 1.0 | 0.0 | 0.00 | 0.00 | 0.01 | 56 | 1100.1 |
| 20260509000005 | 53 | 0 | 0.0 | 0.0 | 0.00 | 0.00 | 0.00 | 55 | 1010.8 |
| 20260508235504 | 54 | 0 | 0.0 | 0.0 | 0.00 | 0.00 | 0.00 | 53 | 1010.7 |
| 20260508234614 | 54 | 264 | 2.0 | 0.0 | 0.00 | 0.00 | 0.01 | 54 | 1100.1 |
| 20260508234505 | 54 | 0 | 0.0 | 0.0 | 0.00 | 0.00 | 0.00 | 52 | 1010.6 |
| 20260508234006 | 54 | 0 | 0.0 | 0.0 | 0.00 | 0.00 | 0.00 | 51 | 1010.5 |
| 20260508233507 | 55 | 0 | 0.0 | 0.0 | 0.00 | 0.00 | 0.00 | 51 | 1010.5 |
| 20260508233120 | 55 | 272 | 4.0 | 0.0 | 0.00 | 0.00 | 0.01 | 52 | 1100.1 |
| 20260508232505 | 55 | 0 | 0.0 | 0.0 | 0.00 | 0.00 | 0.00 | 51 | 1010.4 |
| 20260508231609 | 55 | 258 | 4.0 | 0.0 | 0.00 | 0.00 | 0.01 | 52 | 1100.1 |
| 20260508231505 | 55 | 0 | 0.0 | 0.0 | 0.00 | 0.00 | 0.00 | 51 | 1010.3 |
| 20260508230505 | 56 | 0 | 0.0 | 0.0 | 0.00 | 0.00 | 0.00 | 50 | 1010.2 |
| 20260508230023 | 56 | 257 | 4.0 | 0.0 | 0.00 | 0.00 | 0.01 | 51 | 1100.1 |
| 20260508230005 | 56 | 0 | 0.0 | 0.0 | 0.00 | 0.00 | 0.00 | 49 | 1010.2 |
| 20260508225005 | 57 | 0 | 0.0 | 0.0 | 0.00 | 0.00 | 0.00 | 48 | 1010.1 |
| 20260508224621 | 56 | 262 | 5.0 | 0.0 | 0.00 | 0.00 | 0.01 | 50 | 1100.1 |
| 20260508224505 | 57 | 0 | 0.0 | 0.0 | 0.00 | 0.00 | 0.00 | 48 | 1010.0 |
| 20260508224005 | 57 | 0 | 0.0 | 0.0 | 0.00 | 0.00 | 0.00 | 48 | 1010.0 |
| 20260508223504 | 57 | 0 | 0.0 | 0.0 | 0.00 | 0.00 | 0.00 | 48 | 1010.0 |
| 20260508223110 | 57 | 300 | 5.0 | 0.0 | 0.00 | 0.00 | 0.01 | 48 | 1100.1 |
| 20260508223005 | 58 | 0 | 0.0 | 0.0 | 0.00 | 0.00 | 0.00 | 47 | 1009.9 |
| 20260508221606 | 58 | 266 | 4.0 | 0.0 | 0.00 | 0.00 | 0.01 | 48 | 1100.1 |
| 20260508221505 | 58 | 0 | 0.0 | 0.0 | 0.00 | 0.00 | 0.00 | 50 | 1009.9 |
| 20260508221005 | 58 | 0 | 0.0 | 0.0 | 0.00 | 0.00 | 0.00 | 47 | 1009.9 |
| 20260508220504 | 58 | 0 | 0.0 | 0.0 | 0.00 | 0.00 | 0.00 | 48 | 1009.8 |
| 20260508220112 | 58 | 355 | 6.0 | 0.0 | 0.00 | 0.00 | 0.01 | 48 | 1100.1 |
| 20260508215504 | 58 | 0 | 0.0 | 0.0 | 0.00 | 0.00 | 0.00 | 49 | 1009.7 |
| 20260508214506 | 58 | 349 | 5.0 | 0.0 | 0.00 | 0.00 | 0.01 | 50 | 1100.1 |
| 20260508214006 | 59 | 0 | 0.0 | 0.0 | 0.00 | 0.00 | 0.00 | 50 | 1009.6 |
| 20260508213504 | 58 | 0 | 0.0 | 0.0 | 0.00 | 0.00 | 0.00 | 53 | 1009.6 |
| 20260508213057 | 58 | 243 | 3.0 | 0.0 | 0.00 | 0.00 | 0.01 | 54 | 1100.1 |
| 20260508213005 | 58 | 0 | 0.0 | 0.0 | 0.00 | 0.00 | 0.00 | 54 | 1009.6 |
| 20260508212504 | 57 | 0 | 0.0 | 0.0 | 0.00 | 0.00 | 0.00 | 56 | 1009.4 |
| 20260508212005 | 56 | 0 | 0.0 | 0.0 | 0.00 | 0.00 | 0.00 | 59 | 1009.5 |
| 20260508211509 | 56 | 243 | 3.0 | 0.0 | 0.00 | 0.00 | 0.01 | 61 | 1100.1 |
| 20260508210504 | 54 | 0 | 0.0 | 0.0 | 0.00 | 0.00 | 0.00 | 66 | 1009.7 |
| 20260508210108 | 54 | 243 | 5.0 | 0.0 | 0.00 | 0.00 | 0.01 | 66 | 1100.1 |
| 20260508210005 | 54 | 0 | 0.0 | 0.0 | 0.00 | 0.00 | 0.00 | 67 | 1009.6 |
| 20260508205005 | 54 | 0 | 0.0 | 0.0 | 0.00 | 0.00 | 0.00 | 67 | 1009.4 |
| 20260508204521 | 54 | 261 | 5.0 | 0.0 | 0.00 | 0.00 | 0.01 | 65 | 1100.1 |
| 20260508204005 | 54 | 0 | 0.0 | 0.0 | 0.00 | 0.00 | 0.00 | 66 | 1009.4 |
| 20260508203018 | 55 | 248 | 6.0 | 0.0 | 0.00 | 0.00 | 0.01 | 62 | 1100.1 |
| 20260508203005 | 54 | 0 | 0.0 | 0.0 | 0.00 | 0.00 | 0.00 | 67 | 1009.2 |
| 20260508202505 | 54 | 0 | 0.0 | 0.0 | 0.00 | 0.00 | 0.00 | 77 | 1009.2 |
| 20260508202005 | 54 | 0 | 0.0 | 0.0 | 0.00 | 0.00 | 0.00 | 80 | 1009.0 |
| 20260508201601 | 54 | 337 | 1.0 | 0.0 | 0.00 | 0.00 | 0.01 | 75 | 1100.1 |
| 20260508200505 | 53 | 0 | 0.0 | 0.0 | 0.00 | 0.00 | 0.00 | 82 | 1009.0 |
| 20260508200006 | 53 | 128 | 2.0 | 0.0 | 0.00 | 0.00 | 0.01 | 76 | 1100.1 |
| 20260508200004 | 53 | 0 | 0.0 | 0.0 | 0.00 | 0.00 | 0.00 | 82 | 1009.1 |
| 20260508195005 | 53 | 0 | 0.0 | 0.0 | 0.00 | 0.00 | 0.00 | 80 | 1009.0 |
| 20260508194642 | 53 | 180 | 1.0 | 0.0 | 0.00 | 0.00 | 0.00 | 75 | 1100.1 |
| 20260508194005 | 54 | 0 | 0.0 | 0.0 | 0.00 | 0.00 | 0.00 | 76 | 1009.1 |
| 20260508193130 | 54 | 189 | 7.0 | 0.0 | 0.00 | 0.00 | 0.00 | 71 | 1100.1 |
| 20260508192504 | 56 | 0 | 0.0 | 0.0 | 0.00 | 0.00 | 0.00 | 68 | 1008.9 |
| 20260508191626 | 57 | 242 | 5.0 | 0.0 | 0.00 | 0.00 | 0.00 | 64 | 1100.1 |
| 20260508191504 | 58 | 0 | 0.0 | 0.0 | 0.00 | 0.00 | 0.00 | 63 | 1008.6 |
| 20260508191005 | 58 | 0 | 0.0 | 0.0 | 0.00 | 0.00 | 0.00 | 60 | 1008.6 |
| 20260508190505 | 59 | 0 | 0.0 | 0.0 | 0.00 | 0.00 | 0.00 | 59 | 1008.5 |
| 20260508190111 | 58 | 221 | 7.0 | 0.0 | 0.00 | 0.00 | 0.00 | 60 | 1100.1 |
| 20260508190004 | 61 | 0 | 0.0 | 0.0 | 0.00 | 0.00 | 0.00 | 55 | 1008.5 |
| 20260508185505 | 61 | 0 | 0.0 | 0.0 | 0.00 | 0.00 | 0.00 | 55 | 1008.5 |
| 20260508184513 | 59 | 229 | 7.0 | 0.0 | 0.00 | 0.00 | 0.00 | 55 | 1100.1 |
| 20260508184505 | 62 | 0 | 0.0 | 0.0 | 0.00 | 0.00 | 0.00 | 50 | 1008.5 |
| 20260508183057 | 58 | 227 | 8.0 | 0.0 | 0.00 | 0.00 | 0.00 | 56 | 1100.1 |
| 20260508182506 | 61 | 0 | 0.0 | 0.0 | 0.00 | 0.00 | 0.00 | 47 | 1008.7 |
| 20260508182006 | 61 | 0 | 0.0 | 0.0 | 0.00 | 0.00 | 0.00 | 50 | 1008.7 |
| 20260508181506 | 58 | 242 | 8.0 | 0.0 | 0.00 | 0.00 | 0.00 | 55 | 1100.1 |
| 20260508180109 | 58 | 185 | 6.0 | 0.0 | 0.00 | 0.00 | 0.00 | 55 | 1100.1 |
| 20260508180006 | 59 | 0 | 0.0 | 0.0 | 0.00 | 0.00 | 0.00 | 52 | 1008.6 |
| 20260508175007 | 59 | 0 | 0.0 | 0.0 | 0.00 | 0.00 | 0.00 | 52 | 1008.7 |
| 20260508174516 | 58 | 227 | 7.0 | 0.0 | 0.00 | 0.00 | 0.00 | 54 | 1100.1 |
| 20260508174506 | 60 | 0 | 0.0 | 0.0 | 0.00 | 0.00 | 0.00 | 48 | 1008.7 |
| 20260508174006 | 61 | 0 | 0.0 | 0.0 | 0.00 | 0.00 | 0.00 | 47 | 1008.8 |
| 20260508173103 | 60 | 229 | 6.0 | 0.0 | 0.00 | 0.00 | 0.00 | 52 | 1100.1 |
| 20260508171616 | 58 | 235 | 7.0 | 0.0 | 0.00 | 0.00 | 0.00 | 51 | 1100.1 |
| 20260508171506 | 62 | 0 | 0.0 | 0.0 | 0.00 | 0.00 | 0.00 | 45 | 1008.9 |
| 20260508171007 | 61 | 0 | 0.0 | 0.0 | 0.00 | 0.00 | 0.00 | 48 | 1009.0 |
| 20260508170506 | 61 | 0 | 0.0 | 0.0 | 0.00 | 0.00 | 0.00 | 44 | 1009.1 |
| 20260508170122 | 59 | 213 | 6.0 | 0.0 | 0.00 | 0.00 | 0.00 | 48 | 1100.1 |
| 20260508170006 | 61 | 0 | 0.0 | 0.0 | 0.00 | 0.00 | 0.00 | 44 | 1009.1 |
| 20260508165506 | 61 | 0 | 0.0 | 0.0 | 0.00 | 0.00 | 0.00 | 45 | 1009.0 |
| 20260508164610 | 60 | 178 | 7.0 | 0.0 | 0.00 | 0.00 | 0.00 | 46 | 1100.1 |
| 20260508164007 | 64 | 0 | 0.0 | 0.0 | 0.00 | 0.00 | 0.00 | 42 | 1009.1 |
| 20260508163506 | 63 | 0 | 0.0 | 0.0 | 0.00 | 0.00 | 0.00 | 41 | 1009.2 |
| 20260508163020 | 60 | 188 | 6.0 | 0.0 | 0.00 | 0.00 | 0.00 | 45 | 1100.1 |
| 20260508162506 | 62 | 0 | 0.0 | 0.0 | 0.00 | 0.00 | 0.00 | 42 | 1009.3 |
| 20260508161616 | 60 | 233 | 5.0 | 0.0 | 0.00 | 0.00 | 0.00 | 35 | 1100.1 |
| 20260508161506 | 62 | 0 | 0.0 | 0.0 | 0.00 | 0.00 | 0.00 | 36 | 1009.4 |
| 20260508160135 | 60 | 294 | 5.0 | 0.0 | 0.00 | 0.00 | 0.00 | 36 | 1100.1 |
| 20260508160006 | 62 | 0 | 0.0 | 0.0 | 0.00 | 0.00 | 0.00 | 36 | 1009.5 |
| 20260508155506 | 62 | 0 | 0.0 | 0.0 | 0.00 | 0.00 | 0.00 | 35 | 1009.6 |
| 20260508154620 | 59 | 264 | 4.0 | 0.0 | 0.00 | 0.00 | 0.00 | 37 | 1100.1 |
| 20260508154506 | 63 | 0 | 0.0 | 0.0 | 0.00 | 0.00 | 0.00 | 34 | 1009.6 |
| 20260508154007 | 62 | 0 | 0.0 | 0.0 | 0.00 | 0.00 | 0.00 | 35 | 1009.6 |
| 20260508153506 | 62 | 0 | 0.0 | 0.0 | 0.00 | 0.00 | 0.00 | 36 | 1009.7 |
| 20260508153112 | 58 | 260 | 5.0 | 0.0 | 0.00 | 0.00 | 0.00 | 39 | 1100.1 |
| 20260508153007 | 61 | 0 | 0.0 | 0.0 | 0.00 | 0.00 | 0.00 | 37 | 1009.7 |
| 20260508152507 | 61 | 0 | 0.0 | 0.0 | 0.00 | 0.00 | 0.00 | 35 | 1009.8 |
| 20260508152007 | 61 | 0 | 0.0 | 0.0 | 0.00 | 0.00 | 0.00 | 36 | 1009.9 |
| 20260508151007 | 61 | 0 | 0.0 | 0.0 | 0.00 | 0.00 | 0.00 | 34 | 1009.9 |
| 20260508150506 | 61 | 0 | 0.0 | 0.0 | 0.00 | 0.00 | 0.00 | 37 | 1009.9 |
| 20260508150125 | 58 | 238 | 4.0 | 0.0 | 0.00 | 0.00 | 0.00 | 37 | 1100.1 |
| 20260508145007 | 59 | 0 | 0.0 | 0.0 | 0.00 | 0.00 | 0.00 | 39 | 1010.0 |
| 20260508144610 | 57 | 238 | 6.0 | 0.0 | 0.00 | 0.00 | 0.00 | 38 | 1100.1 |
| 20260508143506 | 58 | 0 | 0.0 | 0.0 | 0.00 | 0.00 | 0.00 | 40 | 1010.1 |
| 20260508143113 | 57 | 238 | 3.0 | 0.0 | 0.00 | 0.00 | 0.00 | 42 | 1100.1 |
| 20260508142506 | 57 | 0 | 0.0 | 0.0 | 0.00 | 0.00 | 0.00 | 42 | 1010.1 |
| 20260508141615 | 55 | 238 | 6.0 | 0.0 | 0.00 | 0.00 | 0.00 | 38 | 1100.1 |
| 20260508140507 | 55 | 0 | 0.0 | 0.0 | 0.00 | 0.00 | 0.00 | 45 | 1010.3 |
| 20260508140007 | 55 | 0 | 0.0 | 0.0 | 0.00 | 0.00 | 0.00 | 44 | 1010.3 |
| 20260508140003 | 55 | 238 | 5.0 | 0.0 | 0.00 | 0.00 | 0.00 | 43 | 1100.1 |
| 20260508134527 | 55 | 238 | 4.0 | 0.0 | 0.00 | 0.00 | 0.00 | 47 | 1100.1 |
| 20260508134507 | 55 | 0 | 0.0 | 0.0 | 0.00 | 0.00 | 0.00 | 45 | 1010.3 |
| 20260508134006 | 55 | 0 | 0.0 | 0.0 | 0.00 | 0.00 | 0.00 | 47 | 1010.3 |
| 20260508133014 | 54 | 238 | 3.0 | 0.0 | 0.00 | 0.00 | 0.00 | 45 | 1100.1 |
| 20260508132506 | 54 | 0 | 0.0 | 0.0 | 0.00 | 0.00 | 0.00 | 47 | 1010.4 |
| 20260508131504 | 53 | 238 | 3.0 | 0.0 | 0.00 | 0.00 | 0.00 | 50 | 1100.1 |
| 20260508130006 | 53 | 0 | 0.0 | 0.0 | 0.00 | 0.00 | 0.00 | 48 | 1010.5 |
| 20260508125007 | 53 | 0 | 0.0 | 0.0 | 0.00 | 0.00 | 0.00 | 52 | 1010.4 |
| 20260508124634 | 52 | 238 | 4.0 | 0.0 | 0.00 | 0.00 | 0.00 | 52 | 1100.1 |
| 20260508124506 | 52 | 0 | 0.0 | 0.0 | 0.00 | 0.00 | 0.00 | 55 | 1010.4 |
| 20260508124007 | 52 | 0 | 0.0 | 0.0 | 0.00 | 0.00 | 0.00 | 54 | 1010.4 |
| 20260508123506 | 52 | 0 | 0.0 | 0.0 | 0.00 | 0.00 | 0.00 | 56 | 1010.4 |
| 20260508123119 | 51 | 238 | 3.0 | 0.0 | 0.00 | 0.00 | 0.00 | 56 | 1100.1 |
| 20260508122506 | 50 | 0 | 0.0 | 0.0 | 0.00 | 0.01 | 0.00 | 61 | 1010.5 |
| 20260508121624 | 49 | 238 | 1.0 | 0.0 | 0.00 | 0.00 | 0.00 | 60 | 1100.1 |
| 20260508121506 | 49 | 0 | 0.0 | 0.0 | 0.00 | 0.01 | 0.00 | 62 | 1010.5 |
| 20260508120507 | 49 | 0 | 0.0 | 0.0 | 0.00 | 0.01 | 0.00 | 64 | 1010.6 |
| 20260508120125 | 48 | 238 | 1.0 | 0.0 | 0.00 | 0.00 | 0.00 | 62 | 1100.1 |
| 20260508115509 | 48 | 0 | 0.0 | 0.0 | 0.00 | 0.01 | 0.00 | 66 | 1010.6 |
| 20260508115007 | 48 | 0 | 0.0 | 0.0 | 0.00 | 0.01 | 0.00 | 66 | 1010.6 |
| 20260508114616 | 48 | 238 | 1.0 | 0.0 | 0.00 | 0.00 | 0.00 | 64 | 1100.1 |
| 20260508113124 | 47 | 238 | 0.0 | 0.0 | 0.00 | 0.00 | 0.00 | 64 | 1100.1 |
| 20260508111616 | 46 | 238 | 1.0 | 0.0 | 0.00 | 0.00 | 0.00 | 66 | 1100.1 |
| 20260508110112 | 45 | 238 | 1.0 | 0.0 | 0.00 | 0.00 | 0.00 | 69 | 1100.1 |
| 20260508105506 | 43 | 0 | 0.0 | 0.0 | 0.00 | 0.04 | 0.00 | 75 | 1010.3 |
| 20260508104626 | 42 | 238 | 0.0 | 0.0 | 0.00 | 0.00 | 0.00 | 73 | 1100.1 |
| 20260508103506 | 41 | 0 | 0.0 | 0.0 | 0.00 | 0.05 | 0.00 | 78 | 1009.9 |